Regional Weather Roundup
Issued by NWS Wakefield, VA

Home | Current Version | Previous Version | Graphics & Text | Print | Product List | Glossary On
Versions: 1 2 3 4 5 6 7 8 9 10 11 12 13 14 15 16 17 18 19 20 21 22 23 24 25 26 27 28 29 30 31 32 33 34 35 36 37 38 39 40 41 42 43 44 45 46 47 48 49 50
000
ASUS41 KAKQ 221410
RWRAKQ

REGIONAL WEATHER ROUNDUP
NATIONAL WEATHER SERVICE WAKEFIELD VA
1000 AM EDT FRI AUG 22 2014

Note: "fair" indicates few or no clouds below 12,000 feet with no
significant weather and/or obstructions to visibility. * = Denotes
station may not report precipitation (e.g., rain,snow,etc.),
thunder or fog.

VAZ042-051-052>054-056-221500-
NORTHERN VIRGINIA

CITY           SKY/WX    TMP DP  RH WIND       PRES   REMARKS
WASH NATIONAL  PTSUNNY   80  68  66 NE8       30.00F
DULLES         DRIZZLE   74  66  76 NE9       30.02R
FORT BELVOIR   MOSUNNY   77  69  76 VRB2      30.01R
QUANTICO       PTSUNNY   78  67  68 NE8       30.00F
FREDERICKSBRG* PTSUNNY   80  68  67 NE6       29.99S
STAFFORD*      PTSUNNY   77  70  79 NE3       30.04S
WARRENTON      CLOUDY    76  74  91 CALM      30.02R
CULPEPER*      CLOUDY   N/A N/A N/A CALM      30.02S
MANASSAS*      NOT AVBL
LEESBURG*      PTSUNNY   73  70  88 NE6       30.03S
WINCHESTER     DRIZZLE   72  68  88 CALM      30.03R
$$

VAZ048-049-060>072-079>083-221500-
CENTRAL AND SOUTH CENTRAL VIRGINIA...AND NORTH CENTRAL NORTH CAROLINA

CITY           SKY/WX    TMP DP  RH WIND       PRES   REMARKS
RICHMOND       PTSUNNY   82  69  64 CALM      30.01R
CHESTERFIELD*  PTSUNNY   79  64  61 CALM      30.03S
HANOVER        PTSUNNY   79  69  71 CALM      30.02S
TAPPAHANNOCK*  PTSUNNY   80  66  63 N6        30.00S
CHARLOTTSVILLE LGT RAIN  73  68  84 NW3       30.02S
ORANGE*        LGT RAIN  73  70  88 CALM      30.03S
LOUISA*        CLOUDY    75  70  83 CALM      30.01S
FARMVILLE*     CLOUDY    77  73  88 CALM      30.00F
SOUTH HILL*    MOSUNNY   79  73  83 N3        30.08R
ROANOKE RAPIDS MOSUNNY   79  72  78 N5        30.01F
RALEIGH        PTSUNNY   82  71  69 SW3       30.04S
$$

VAZ088>098-221500-
SOUTHEAST VIRGINIA

CITY           SKY/WX    TMP DP  RH WIND       PRES   REMARKS
NORFOLK        PTSUNNY   81  69  67 NW7       29.97S
VIRGINIA BEACH PTSUNNY   82  71  69 NW9       29.96S
NORFOLK NAVAL  PTSUNNY   82  69  64 NW10      29.99S
WEST POINT*    MOSUNNY   83  67  59 NW6       30.01R
NEWPORT NEWS   PTSUNNY   85  70  60 N8        29.99R
LANGLEY AFB    PTSUNNY   81  70  68 N9        29.98R
FORT EUSTIS    PTSUNNY   81  69  67 NW8       29.98R
WILLIAMSBURG*  PTSUNNY   82  72  69 CALM      30.01R
FRANKLIN*      SUNNY     81  72  74 NW3       30.00R
WAKEFIELD      MOSUNNY   81  72  74 CALM      30.01R
$$

VAZ020-022-025-037-045-221500-
WESTERN AND SOUTHWEST VIRGINIA

CITY           SKY/WX    TMP DP  RH WIND       PRES   REMARKS
STAUNTON*      CLOUDY    71  68  90 CALM      30.07S
HOT SPRINGS VA FOG       62  62 100 W14G20    30.19R VSB 1/2
LYNCHBURG        N/A    N/A N/A N/A W3        30.07R
DANVILLE       MOSUNNY   81  72  74 W3        30.04F
MARTINSVILLE   MOSUNNY   80  72  77 CALM      30.08S
ROANOKE        LGT RAIN  73  69  87 CALM      30.09S
BLACKSBURG     CLOUDY    72  72 100 W3        30.15R
DUBLIN*        PTSUNNY   76  72  88 W7        30.15R
MARION*        CLOUDY    72  70  93 SW12      30.19S FOG
HILLSVILLE*    PTSUNNY   74  70  87 NW12      30.15S
RICHLANDS*     CLOUDY    75  71  86 SW7       30.18S
WISE*          CLOUDY    73  72  94 W7        30.19F
ABINGDON*      CLOUDY    73  73 100 W6        30.17R
$$

MDZ021>025-VAZ099-100-221500-
SOUTHERN MARYLAND AND THE DELMARVA PENINSULA

CITY           SKY/WX    TMP DP  RH WIND       PRES   REMARKS
PATUXENT RIVER PTSUNNY   79  71  76 N5        29.98S
BAY BRIDGE APT   N/A     79  68  69 E6        29.99F
LEONARDTOWN    PTSUNNY   77  68  73 CALM      30.01
DOVER          CLOUDY    77  72  83 NE8       29.99R
GEORGETOWN     MOSUNNY   79  72  79 MISG      29.98S
EASTON         PTSUNNY   77  77 100 CALM      30.03
CAMBRIDGE      CLOUDY    77  70  78 N6        29.98S
SALISBURY      MOSUNNY   81  70  69 NE3       29.97S
OCEAN CITY     SUNNY     78  72  81 CALM      29.96F
WALLOPS ISLAND MOSUNNY   79  72  79 CALM      29.97S
ACCOMACK*      PTSUNNY   79  72  78 N5        29.96S
$$

NCZ012>017-030>032-221500-
EASTERN NORTH CAROLINA

CITY           SKY/WX    TMP DP  RH WIND       PRES   REMARKS
ELIZABETH CITY PTSUNNY   80  73  79 W12       29.98S
AHOSKIE*       MOSUNNY   78  70  76 NW3       30.01S
EDENTON*       PTSUNNY   80  72  75 NW6       29.99S
CURRITUCK*     PTSUNNY   81  73  76 W7        29.98S
KILL DEVIL HLS PTSUNNY   79  73  81 NW5       29.96S
MANTEO         PTSUNNY   79  72  78 NW5       29.98S
CAPE HATTERAS  PTSUNNY   81  73  76 VRB5      29.99R
GOLDSBORO      MOSUNNY   85  74  70 NW6       30.00S
WASHINGTON     SUNNY     83  73  71 NW7       30.01R
GREENVILLE     MOSUNNY   84  73  70 N6        30.03R
NEW BERN       MOSUNNY   87  73  62 W6        30.01F
WILMINGTON     MOSUNNY   84  75  74 W6        30.03S
$$

VAZ048-221500-
ELSEWHERE

CITY           SKY/WX    TMP DP  RH WIND       PRES   REMARKS
HARRISBURG PA  CLOUDY    73  68  84 SE3       30.02S
BALTIMORE      CLOUDY    75  69  81 NE7       30.00S
ANNAPOLIS        N/A     76  69  79 NE7       29.99S
ANDREWS AFB    MOSUNNY   76  70  83 NE5       30.01R
WILMINGTON DE  PTSUNNY   75  67  76 NE8       30.03R
PHILADELPHIA   CLOUDY    72  66  81 E5        30.03R
WILDWOOD NJ*   CLOUDY    75  66  73 E7        30.00R
ATLANTIC CITY  CLOUDY    74  68  81 E9        30.01R
HENDERSON NC   MOSUNNY   79  69  70 W3        30.04S
GREENSBORO     CLOUDY    83  71  67 W3        30.06S
ROCKY MOUNT    MOSUNNY   84  72  67 NW8       30.02R
FAYETTEVILLE   PTSUNNY   86  70  58 NW7       30.03S
CHARLOTTE      PTSUNNY   85  70  60 VRB3      30.07R
$$

VAZ100-221500-
MARINE

STATION/POSITION TIME  TEMP    WIND        PRES    WAVE   SWELL
                       AIR SEA DIR/SP/G            HT/PER HT/PER
                 (UTC) (F)     (DEG/KT/KT) (MB)    (FT/S) (FT/S)
44066 TX TWR #4  1400   71 72   60/ 14/ 16 1015.8F   3/ 7   2/ 7
CAPE MAY NJ      1400   74 80   90/  4/  7 1014.9R
LEWES DE         1400   77 75   90/  3/  3 1014.6S
15NM E FENWICK I 1400   74 75              1014.4F   3/ 7
OCEAN-CITY-INLET 1400   76 76  200/  3/  4 1014.2R
WACHAPREAGUE VA  1400   80 81  360/  5/  6 1014.5F
THOMAS POINT MD  1400   75 78   70/  6/  7 1016.0S
GOOSES REEF MD   1400   76      20/  8/ 12 1015.8R
COVE POINT MD    1400   75      10/  8/ 11 1015.2S
SOLOMONS ISLAND  1400      80                N/A
BISHOPS HEAD MD  1400   78 80   10/  7/  9 1014.7F
PINEY POINT MD   1400          320/  6/  7   N/A
POTOMAC MD       1400   78      20/  8/ 10 1014.5R
CAMBRIDGE MD     1400   75 79   40/  4/  5 1015.1F
LEWISETTA VA     1400   77 80  360/  6/  8 1015.1S
RAPPAHANNOCK LGT 1400          330/ 10/ 11 1015.3S
STINGRAY PT      1400   78     350/  8/ 10 1015.7R
YORK RVR RNG VA  1400   78     350/ 10/ 11 1014.8R
YORKTOWN VA      1400   79 81  310/  9/ 11 1015.1R
JAMESTOWN VA     1400   76     300/  6/  8   N/A
DOMINION TERM VA 1400   78     310/ 11/ 13 1015.2S
KIPTOPEKE VA     1400      82  340/  9/ 10   N/A
CHES BAY BRIDGE  1400   79 79  300/ 11/ 12 1014.5S
CAPE HENRY VA    1400   79     290/  7/ 11 1013.6F
CHESAPEAKE LGHT  1300   79     290/ 14/ 15 1015.4S
WILLOUBY STN VA  1400   79     330/  9/ 10 1014.1R
S CRANEY ISL VA  1400          290/  7/  9 1015.0R
CAPE HENRY BUOY  1400      79                N/A     2/ 8
1ST LANDING BUOY 1400   80     320/  8/ 12 1014.5F
CAPE CHARLES BUO 1400      78                N/A     2/ 7   2/ 7
OFFSHORE WE BUOY 1400      78                N/A     2/ 8   2/ 8
64NM E OF VA BCH 1400   78 78  290/ 12/ 14 1013.7F   2/ 7   2/ 7
DUCK PIER NC     1400   78 78  290/  9/ 11 1014.0F
44056 DUCK FRF   1400                        N/A     2/ 7
OREGON INLET NC  1400   81 83  300/  4/  6 1014.9R
HATTERAS NC      1400   80 82  320/  6/  7 1015.9R
DIAMOND SHLS NC  1400   80     300/  8/  8 1015.3R   2/ 9   2/ 9
CAPE LOOKOUT NC  1300   82     280/  8/  9 1015.9R
$$


USA.gov is the U.S. government's official web portal to all federal, state and local government web resources and services.